Regional Weather Roundup
Issued by NWS Green Bay, WI

Home | Current Version | Previous Version | Text Only | Print | Product List | Glossary On
Versions: 1 2 3 4 5 6 7 8 9 10 11 12 13 14 15 16 17 18 19 20 21 22 23 24 25 26 27 28 29 30 31 32 33 34 35 36 37 38 39 40 41 42 43 44 45 46 47 48 49 50
000
ASUS43 KGRB 241411
RWRGRB

NORTH-CENTRAL AND NORTHEAST WISCONSIN REGIONAL WEATHER ROUNDUP
NATIONAL WEATHER SERVICE GREEN BAY WI
900 AM CDT WED MAY 24 2017

WIZ005-009-010>012-018-019-241500-
NORTH CENTRAL WISCONSIN

CITY           SKY/WX    TMP DP  RH WIND       PRES   REMARKS
IRONWOOD       CLOUDY    48  44  86 NE6       29.81S
MANITOWISH WTR CLOUDY    48  45  90 NE12      29.77S
ARBOR VITAE    CLOUDY    52  45  77 NE10G17   29.76S
EAGLE RIVER    CLOUDY    47  45  92 NE12      29.76R
LAND O LAKES   CLOUDY    47  43  84 NE8       29.79R
RHINELANDER    CLOUDY    48  45  89 NE8       29.76R
PHILLIPS       PTSUNNY   51  45  79 NE12      29.76S
ANTIGO         CLOUDY    47  47  98 NE10      29.73S
TOMAHAWK       CLOUDY    48  44  87 NE5       29.76R
MERRILL        CLOUDY    48  47  97 NE6       29.75R
$$

WIZ013-073-241500-
NORTHEAST WISCONSIN

CITY           SKY/WX    TMP DP  RH WIND       PRES   REMARKS
IRON MOUNTAIN  LGT RAIN  48  44  86 NE5       29.75R
MARINETTE      CLOUDY    48  46  93 NE8       29.74
OCONTO         CLOUDY    47  46  97 NE8       29.72R
$$

WIZ017-030-035>037-045-241500-
CENTRAL WISCONSIN

CITY           SKY/WX    TMP DP  RH WIND       PRES   REMARKS
MEDFORD        CLOUDY    48  45  87 NE9       29.74S
WAUSAU         LGT RAIN  48  47  96 N7        29.71S
MOSINEE        CLOUDY    48  48 100 N9        29.73S FOG
MARSHFIELD     CLOUDY    49  46  90 NE10      29.71S
WISC RAPIDS    CLOUDY    50  48  93 NE7       29.71F
STEVENS POINT  CLOUDY    47  47 100 N8        29.71F FOG
WAUPACA        CLOUDY    51  49  95 NE8       29.71S
SHAWANO        CLOUDY    50  48  93 NE9       29.73R FOG
CLINTONVILLE   CLOUDY    46  46 100 NE6       29.71S
WAUTOMA        CLOUDY    49  48  97 NE8       29.70S
$$

WIZ038-039-048-051-241500-
FOX VALLEY

CITY           SKY/WX    TMP DP  RH WIND       PRES   REMARKS
NWS GREEN BAY  LGT RAIN  50  50 100 N13       29.70S FOG
APPLETON       CLOUDY    48  48 100 NE12G17   29.68R FOG
OSHKOSH        CLOUDY    51  48  89 NE12      29.68S
FOND DU LAC    CLOUDY    51  47  86 N9        29.68S
$$

WIZ022-050-052-241500-
EAST CENTRAL WISCONSIN

CITY           SKY/WX    TMP DP  RH WIND       PRES   REMARKS
EPHRAIM        CLOUDY    46  46 100 N8        29.72R
WASHINGTON ISL CLOUDY    46  46  97 NE7       29.73R
STURGEON BAY   CLOUDY    49  47  93 NE9       29.72R
MANITOWOC      LGT RAIN  48  47  96 N9        29.69S FOG
SHEBOYGAN      LGT RAIN  49  49 100 NE9       29.67S
$$

LMZ563-521-522-541>543-241500-
LAKESHORE

STATION/POSITION TIME  TEMP    WIND        PRES    VSBY  WAVE
                       AIR SEA DIR/SP/G                  HT/PER
                 (UTC) (F)     (DEG/KT/KT) (MB)    (MI)  (FT/S)
SHEBOYGAN LKSHOR 1400   45      10/ 13/ 14 1005.1R
KEWAUNEE LKSHORE 1348   46      20/ 11/ 17 1005.4R
NORTHPORT PIER   1340   46     340/  6/  7 1007.1R
N MID LAKE BUOY  1350   42 39   50/  8/  8 1007.7R         1
CHAMBERS ISLAND  1340   47     360/ 15/ 18 1006.4S
MENOMINEE LKSHOR 1348           10/ 15/ 18 1006.0R
$$




USA.gov is the U.S. government's official web portal to all federal, state and local government web resources and services.